GAOFEN-6

Last updated on Fri Jul 11 2025 00:02:28 GMT+0000 (Coordinated Universal Time)

1 43484U 18048A 25191.60357203 .00000445 00000+0 70816-4 0 9996 2 43484 97.8222 260.8813 0012413 192.1090 167.9824 14.76593504382987
UTC large
Height (km)
Speed (km/s)
/
Latitude / Longitude
Inclination (degrees)
Orbital Period (minutes)
Azimuth
Elevation
Range (km)
Doppler Factor

Next 0 passes for location: London (51.5072 / 0.1276)

Sorry there are no passes over London.